Flag for Poland Weather past 2 weeks in Elbląg, Poland

Now
42 °F

Passing clouds.


Feels Like: 39 °F
Forecast: 37 / 51 °F
Wind: 5 mph from Northwest

Location: Hel

Current Time: Apr 20, 2015 at 2:06:43 AM

Latest Report: Apr 20, 2015 at 1:00 AM


Visibility: 19 mi

Pressure: 30.01 "Hg

Humidity: 82%

Dew point: 36 °F

Location of ElblągLocation

Historic Weather in Elbląg — Graph

°F

Elbląg temperature yesterday

Maximum temperature yesterday: 48 °F (at 3:00 PM)
Minimum temperature yesterday: 40 °F (at 5:00 AM)
Average temperature yesterday: 44 °F

Past Weeks' High & Low Weather Summary

 TemperatureHumidityPressure
High63 °F (Apr 11, 2:00 PM)97% (Apr 6, 3:00 AM)30.51 "Hg (Apr 6, 3:00 AM)
Low33 °F (Apr 6, 3:00 AM)29% (Apr 9, 1:00 PM)29.60 "Hg (Apr 15, 10:00 PM)
Average44 °F77%30.09 "Hg
* Reported Apr 5 1:00 AM — Apr 20 1:00 AM, Elbląg, Weather by CustomWeather, © 2015

Note: Actual official high and low records may vary slightly from our data, if they occured in-between our weather recording intervals... More about our weather records

Advertising

Elbląg weather history for previous 24 hours

 ConditionsComfort  
Time TempWeatherWind HumidityBarometerVisibility
1:00 AM
Mon, Apr 20
42 °FPassing clouds.5 mph82%30.01 "Hg19 mi
12:00 AM42 °FPassing clouds.6 mph80%30.03 "Hg19 mi
10:00 PM
Sun, Apr 19
43 °FPassing clouds.5 mph71%30.07 "Hg19 mi
9:00 PM44 °FPassing clouds.6 mph73%30.08 "Hg19 mi
8:00 PM45 °FPassing clouds.5 mph72%30.10 "Hg19 mi
7:00 PM46 °FPartly sunny.6 mph68%30.09 "Hg19 mi
6:00 PM46 °FPartly sunny.5 mph69%30.10 "Hg19 mi
5:00 PM46 °FOvercast.5 mph69%30.12 "Hg19 mi
4:00 PM46 °FOvercast.5 mph63%30.14 "Hg19 mi
3:00 PM48 °FPartly sunny.5 mph50%30.15 "Hg19 mi
2:00 PM47 °FScattered clouds.6 mph59%30.16 "Hg19 mi
1:00 PM47 °FPassing clouds.6 mph65%30.16 "Hg19 mi
12:00 PM45 °FScattered clouds.6 mph72%30.16 "Hg16 mi
11:00 AM44 °FPartly sunny.6 mph73%30.16 "Hg16 mi
10:00 AM43 °FScattered clouds.6 mph73%30.14 "Hg16 mi
9:00 AM43 °FOvercast.6 mph80%30.13 "Hg16 mi
8:00 AM42 °FPartly sunny.3 mph82%30.11 "Hg12 mi
7:00 AM41 °FPartly sunny.3 mph86%30.10 "Hg12 mi
6:00 AM41 °FPartly sunny.2 mph88%30.09 "Hg12 mi
5:00 AM40 °FPassing clouds.3 mph88%30.08 "Hg12 mi
4:00 AM41 °FOvercast.3 mph82%30.07 "Hg12 mi
3:00 AM42 °FOvercast.2 mph83%30.06 "Hg12 mi
2:00 AM42 °FOvercast.3 mph80%30.08 "Hg12 mi
Weather by CustomWeather, © 2015

See weather overviewHow to use our weather pages